Regional Weather Roundup
Issued by NWS

Home | Current Version | Previous Version | Graphics & Text | Print | Product List | Glossary On
Versions: 1 2 3 4 5 6 7 8 9 10 11 12 13 14 15 16 17 18 19 20 21 22 23 24 25 26 27 28 29 30 31 32 33 34 35 36 37 38 39 40 41 42 43 44 45 46 47 48 49 50
000
ASUS43 KTOP 270559
RWRKS

WEATHER ROUNDUP FOR KANSAS
NATIONAL WEATHER SERVICE GOODLAND KS
100 AM CDT WED MAY 27 2015

NOTE:  "FAIR" INDICATES FEW OR NO CLOUDS BELOW 12,000 FEET WITH NO
SIGNIFICANT WEATHER AND/OR OBSTRUCTIONS TO VISIBILITY.

KSZ001>006-013>018-027>032-041>047-270700-
NORTHWEST KANSAS

CITY           SKY/WX    TMP DP  RH WIND       PRES   REMARKS
GOODLAND       CLEAR     54  51  90 SE6       30.07R
6HR MIN TEMP:  52; 6HR MAX TEMP:  70;

HAYS           CLEAR     55  48  76 N5        30.03S
HILL CITY      CLEAR     53  50  89 CALM      30.05R
6HR MIN TEMP:  52; 6HR MAX TEMP:  73;

RUSSELL        CLEAR     59  52  77 CALM      30.01S
6HR MIN TEMP:  57; 6HR MAX TEMP:  75;

$$

KSZ061>065-074>080-084>089-270700-
SOUTHWEST KANSAS

CITY           SKY/WX    TMP DP  RH WIND       PRES   REMARKS
DODGE CITY     PTCLDY    61  55  81 NE3       30.04R
6HR MIN TEMP:  61; 6HR MAX TEMP:  79;

ELKHART          N/A     61  54  78 SE8         N/A
GARDEN CITY    CLEAR     59  54  83 E7        30.05R
6HR MIN TEMP:  59; 6HR MAX TEMP:  75;

GREAT BEND     CLEAR     61  55  82 CALM      30.02R
LIBERAL        CLOUDY    64  54  68 SE6       30.05F
$$

KSZ066>073-081>083-090>101-270700-
SOUTHEAST KANSAS

CITY           SKY/WX    TMP DP  RH WIND       PRES   REMARKS
CHANUTE        CLOUDY    63  62  97 CALM      29.98S
6HR MIN TEMP:  63; 6HR MAX TEMP:  74;

COFFEYVILLE    CLOUDY    65  64  97 CALM      29.97R
6HR MIN TEMP:  65; 6HR MAX TEMP:  74; 6HR PCP: TRACE;

HUTCHINSON     CLOUDY    67  56  67 NE7       30.02R
6HR MIN TEMP:  64; 6HR MAX TEMP:  79;

PARSONS        CLOUDY    65  64  97 CALM      29.99S
6HR MIN TEMP:  64; 6HR MAX TEMP:  73; 6HR PCP:  0.01;

WICHITA INTL   MOCLDY    63  60  90 SW5       30.00R
6HR MIN TEMP:  62; 6HR MAX TEMP:  71; 6HR PCP:  0.02;

WICHITA JABRA  PTCLDY    67  62  84 SW7       29.99S
6HR MIN TEMP:  64; 6HR MAX TEMP:  74;

WINFIELD       MOCLDY    67  63  87 SW13      30.00R
6HR MIN TEMP:  64; 6HR MAX TEMP:  74;

$$

KSZ007>012-019>026-033>040-048>060-102>105-270700-
NORTHEAST KANSAS

CITY           SKY/WX    TMP DP  RH WIND       PRES   REMARKS
CONCORDIA      CLEAR     58  52  80 W6        30.00S
6HR MIN TEMP:  58; 6HR MAX TEMP:  70;

EMPORIA        CLEAR     61  59  93 W3        29.99R
6HR MIN TEMP:  61; 6HR MAX TEMP:  76;

LAWRENCE       CLEAR     63  58  83 CALM      29.97R
6HR MIN TEMP:  62; 6HR MAX TEMP:  77;

MANHATTAN      CLEAR     57  56  96 CALM      29.98S
6HR MIN TEMP:  57; 6HR MAX TEMP:  74;

OLATHE IND     PTCLDY    66  60  81 W7        29.98R
6HR MIN TEMP:  66; 6HR MAX TEMP:  77;

OLATHE EXE     PTCLDY    64  61  90 S3        29.97R
6HR MIN TEMP:  64; 6HR MAX TEMP:  77;

SALINA         CLEAR     60  55  83 CALM      30.00R
6HR MIN TEMP:  60; 6HR MAX TEMP:  77;

TOPEKA BILLARD MOCLDY    64  59  83 SW3       29.98R
6HR MIN TEMP:  64; 6HR MAX TEMP:  77;

TOPEKA FORBES  PTCLDY    63  58  83 SW5       29.98R
6HR MIN TEMP:  62; 6HR MAX TEMP:  77;

$$


USA.gov is the U.S. government's official web portal to all federal, state and local government web resources and services.